This is the latest recevied weather packets stored in our database for station/object KD9CCP. If no packets are shown the sender has not sent any weather packets the latest 10 day(s).
| Time | Temp. | Humidity | Pressure | Rain* | Wind** | Luminosity | Snow |
|---|---|---|---|---|---|---|---|
| 1777478752 | 5.56° C | 82% | 1017.6 hPa | 0 mm | - | 54 W/m² | - |
| 1777478449 | 5.56° C | 85% | 1017.6 hPa | 0 mm | - | 45 W/m² | - |
| 1777478145 | 5° C | 84% | 1017.6 hPa | 0 mm | - | 46 W/m² | - |
| 1777477842 | 5.56° C | 84% | 1017.5 hPa | 0 mm | - | 49 W/m² | - |
| 1777477537 | 5.56° C | 87% | 1017.6 hPa | 0 mm | - | 61 W/m² | - |
| 1777477235 | 5.56° C | 86% | 1017.7 hPa | 0 mm | - | 85 W/m² | - |
| 1777476931 | 5.56° C | 89% | 1017.6 hPa | 0 mm | - | 82 W/m² | - |
| 1777476629 | 5° C | 86% | 1017.8 hPa | 0 mm | - | 100 W/m² | - |
| 1777476325 | 5° C | 91% | 1017.6 hPa | 0 mm | - | 74 W/m² | - |
| 1777476021 | 5° C | 90% | 1017.7 hPa | 0 mm | - | 53 W/m² | - |
| 1777475717 | 5° C | 89% | 1017.7 hPa | 0 mm | - | 48 W/m² | - |
| 1777475414 | 4.44° C | 90% | 1017.9 hPa | 0 mm | - | 48 W/m² | - |
| 1777475108 | 4.44° C | 90% | 1017.6 hPa | 0 mm | - | 42 W/m² | - |
| 1777474805 | 5° C | 90% | 1017.9 hPa | 0 mm | - | 46 W/m² | - |
| 1777474501 | 5° C | 90% | 1017.7 hPa | 0 mm | - | 58 W/m² | - |
| 1777474198 | 5° C | 91% | 1017.8 hPa | 0 mm | - | 94 W/m² | - |
| 1777473896 | 4.44° C | 91% | 1017.9 hPa | 0 mm | - | 114 W/m² | - |
| 1777473593 | 4.44° C | 92% | 1017.7 hPa | 0 mm | - | 114 W/m² | - |
| 1777473288 | 3.89° C | 94% | 1017.9 hPa | 0 mm | - | 80 W/m² | - |
| 1777472984 | 3.89° C | 94% | 1017.9 hPa | 0 mm | - | 74 W/m² | - |
| 1777472682 | 3.89° C | 93% | 1017.8 hPa | 0 mm | - | 81 W/m² | - |
| 1777472377 | 3.89° C | 95% | 1018.2 hPa | 0 mm | - | 111 W/m² | - |
| 1777472076 | 3.33° C | 94% | 1017.9 hPa | 0 mm | - | 84 W/m² | - |
| 1777471771 | 3.89° C | 96% | 1017.8 hPa | 0 mm | - | 92 W/m² | - |
| 1777471467 | 3.33° C | 95% | 1018 hPa | 0 mm | - | 61 W/m² | - |
* Rain latest hour (hover to see other rain measurements)
** Current wind speed in m/s (hover to see current wind gust speed)